AirNav   Air Wisconsin pilot careers
 
 1032 users online  

VA82 Mount Vernon Hospital Heliport
Alexandria, Virginia, USA

GOING TO ALEXANDRIA?


FAA INFORMATION EFFECTIVE 04 JANUARY 2018

Location

FAA Identifier: VA82
Lat/Long: 38-44-25.2800N / 077-04-34.4300W
38-44.421333N / 077-04.573833W
38.7403556 / -77.0762306
(estimated)
Elevation: 38 ft. / 12 m (estimated)
Variation: 09W (1985)
From city: 4 miles S of ALEXANDRIA, VA
Time zone: UTC -5 (UTC -4 during Daylight Saving Time)
Zip code: 22306

Heliport Operations

Heliport use: Private use, MEDICAL USE.
Activation date: 03/1990
Control tower: no
ARTCC: WASHINGTON CENTER
FSS: LEESBURG FLIGHT SERVICE STATION
Attendance: MON-FRI 24 HOURS/DAY
Wind indicator: yes
Segmented circle: no

Heliport Communications

WX ASOS at DCA (7 nm N): 132.65 (703-412-8140)
WX AWOS-3 at CGS (16 nm NE): 121.225 (301-864-5497)

Nearby radio navigation aids

VOR radial/distance  VOR name  Freq  Var
DCAr204/7.4WASHINGTON VOR/DME111.0009W
ADWr258/10.6ANDREWS VORTAC113.1010W
OTTr288/15.7NOTTINGHAM VORTAC113.7010W
AMLr131/21.7ARMEL VOR/DME113.5008W
BRVr037/27.5BROOKE VORTAC114.5009W
BALr228/32.3BALTIMORE VORTAC115.1011W
CSNr087/37.4CASANOVA VORTAC116.3006W

 
NDB name  Hdg/Dist  Freq  Var  ID
OXONN247/2.833211WDCA -.. -.-. .-
DAVEE028/5.022309WDAA -.. .- .-
GEORGETOWN178/11.632309WGTN --. - -.
SHANNON042/33.423710WEZF . --.. ..-.
ELLICOTT214/35.737111WFND ..-. -. -..
GOODWIN LAKE118/37.522708WGDX --. -.. -..-

Heliport Services

Runway Information

Helipad H1

Dimensions: 75 x 75 ft. / 23 x 23 m
Surface: concrete
Latitude: 38-44.421333N
Longitude: 077-04.573833W
Elevation: 38.0 ft.
Traffic pattern: leftleft

Heliport Ownership and Management from official FAA records

Ownership: Privately-owned
Owner: MT VERNON HOSPITAL
2501 PARKERS LANE
ALEXANDRIA, VA 22306
Phone 703-664-7213
Manager: LARRY RAMSDELL
2501 PARKER'S LANE
ALEXANDRIA, VA 22306
Phone 703-664-7889

Instrument Procedures

There are no published instrument procedures at VA82.

Some nearby airports with instrument procedures:

KDAA - Davison Army Airfield (5 nm W)
KVKX - Potomac Airfield (6 nm E)
W32 - Washington Executive Airport/Hyde Field (7 nm E)
KDCA - Ronald Reagan Washington National Airport (7 nm N)
2W5 - Maryland Airport (9 nm S)
KADW - Joint Base Andrews (11 nm NE)
KCGS - College Park Airport (16 nm NE)
KNYG - Quantico Marine Corps Airfield / Turner Field (18 nm SW)
W00 - Freeway Airport (19 nm NE)
 
Loc | Ops | Rwys | IFR | FBO | Links
Com | Nav | Svcs | Stats | Notes


 
Area around VA82 (Mount Vernon Hospital Heliport)
 
Road maps at: MapQuest Bing Google
 
Aerial photo
No photo
 
Sectional chart

 
Airport distance calculator
Flying to Mount Vernon Hospital Heliport? Find the distance to fly.

From to VA82

Sunrise and sunset
Times for 20-Jan-2018
 Local
(UTC-5)
 Zulu
(UTC)
Morning civil twilight06:5511:55
Sunrise07:2412:24
Sunset17:1522:15
Evening civil twilight17:4422:44

Current date and time
Zulu (UTC)  20-Jan-2018 17:53:33
Local (UTC-5)  20-Jan-2018 12:53:33
 
METAR
KDAA 
4nm W 
201656Z AUTO 00000KT 10SM CLR 12/M06 M RMK AO2 SLPNO T01221058 $
KVKX 
6nm E 
SuperAWOS
201715Z AUTO 25007KT 10SM 12/M04 A2999
KDCA 
7nm N 
201652Z 17009KT 10SM FEW150 SCT250 09/M07 A3002 RMK AO2 SLP164 T00891067
KADW 
11nm NE 
201656Z AUTO 25010KT 10SM CLR 13/M06 A2999 RMK AO2 SLP164 T01251065
KCGS 
16nm NE 
201737Z AUTO 22006KT 10SM CLR 13/M05 A2997 RMK AO1 T01311046
KNYG 
17nm SW 
191856Z 19007KT 10SM FEW250 A3007 07/M10 RMK A02 SLP184 T00671100
TAF
KDAA 
4nm W 
200200Z 2002/2108 22006KT 9999 FEW200 QNH2995INS WND 23012KT AFT 2015 BECMG 2022/2023 22006KT 9999 FEW200 QNH3003INS BECMG 2105/2106 VRB06KT 9999 SCT010 QNH3013INS TX13/2020Z TNM03/2010Z LAST NO AMDS AFT 2002 NEXT 2210
KDCA 
7nm N 
201431Z 2015/2118 20007KT P6SM FEW150 FEW250 FM210000 28005KT P6SM FEW200 SCT250 FM211200 VRB03KT P6SM SCT025 BKN050
KADW 
11nm NE 
200900Z 2009/2115 24006KT 9999 SKC QNH2996INS WND 24012KT AFT 2015 BECMG 2022/2023 24006KT 9999 FEW200 QNH3003INS BECMG 2108/2109 20006KT 9999 BKN010 QNH3018INS TX12/2020Z TNM06/2012Z
KNYG 
17nm SW 
1921/2021 VRB06KT 9999 FEW250 QNH3001INS TM03/2011Z T13/2020Z LAST NO AMD AFT 1921/ NEXT 2209
NOTAMs
Click for the latest NOTAMs
NOTAMs are issued by the DoD/FAA and will open in a separate window not controlled by AirNav.

 

 
 

Would you like to see your business listed on this page?

 If your business provides an interesting product or service to pilots, flight crews, aircraft, or users of the Mount Vernon Hospital Heliport, you should consider listing it here.  To start the listing process, click on the button below
 
Add a business
 

Other Pages about Mount Vernon Hospital Heliport

Update a link
 
Copyright © AirNav, LLC. All rights reserved. Privacy Policy  Contact